www.pogodaiklimat.ru

Погода и климат >> Архив погоды >> Россия >> Якутия >> Усть-Чаркы


ПОГОДА в Усть-Чарках

  • Прогноз погоды в Усть-Чарках
  • Монитор погоды в Усть-Чарках
  • Климат города

АРХИВ ПОГОДЫ в Усть-Чарках

Время (UTC), дата Ветер
(напр.,м/с)
 
Видим.   Явления Облачность Т
(С)
Тd
(С)
f
(%)
Тe
(С)
Тes
(С)
Комфортность P
(гПа)
Po
(гПа)
Тmin
(С)
Tmax
(С)
R
(мм)
S
(см)
15 14.02 штиль 0 50 км ясно -40.2 -42.8 76 -40 -40 опасность
обморожения
1018.0 988.3
18 14.02 штиль 0 50 км ясно -43.0 -45.6 75 -43 -43 опасность
обморожения
1029.6 988.7
21 14.02 В 2 50 км ясно -40.8 -43.8 73 -50 -50 опасность
обморожения
1028.7 988.2 -43.3 40
00 15.02 ЮВ 2 50 км ясно -40.4 -43.3 73 -50 -49 опасность
обморожения
1028.8 988.5
03 15.02 В 2 50 км ясно -33.7 -36.6 75 -42 -41 опасность
обморожения
1027.2 987.9
06 15.02 В 2 50 км ясно -31.3 -35.0 70 -39 -39 опасность
обморожения
1026.5 987.7
09 15.02 В 2 50 км ясно -35.4 -38.4 74 -44 -44 опасность
обморожения
1027.9 988.4 -30.3
12 15.02 ЮВ 3 50 км ясно -35.9 -38.7 75 -47 -47 опасность
обморожения
1027.8 988.1
15 15.02 ЮВ 1 50 км ясно -37.7 -40.5 75 -43 -43 опасность
обморожения
1028.2 988.2
18 15.02 ЮВ 3 50 км ясно -37.6 -40.5 74 -49 -49 опасность
обморожения
1028.5 988.5
21 15.02 В 2 50 км ясно -40.3 -43.3 73 -49 -49 опасность
обморожения
1029.1 988.8 -42.2 40
00 16.02 ЮВ 3 50 км ясно -40.4 -43.3 73 -52 -52 опасность
обморожения
1029.2 988.9
03 16.02 ЮВ 2 50 км ясно -37.9 -41.6 68 -47 -46 опасность
обморожения
1028.1 988.1
06 16.02 В 2 50 км ясно -34.8 -39.1 65 -43 -43 опасность
обморожения
1027.4 987.9
09 16.02 ЮВ 2 50 км ясно -36.4 -40.1 68 -45 -45 опасность
обморожения
1028.3 988.6 -34.0
12 16.02 ЮВ 2 50 км ясно -38.4 -42.0 69 -47 -47 опасность
обморожения
1028.1 988.1
15 16.02 ЮВ 3 50 км ясно -39.7 -42.9 71 -51 -51 опасность
обморожения
1028.6 988.3
18 16.02 ЮВ 2 50 км ясно -40.6 -43.3 75 -50 -50 опасность
обморожения
1028.9 988.4
21 16.02 ЮВ 3 50 км ясно -41.0 -44.4 69 -53 -53 опасность
обморожения
1028.1 987.6 -41.3 40
00 17.02 ЮВ 3 50 км ясно -41.7 -45.0 70 -54 -53 опасность
обморожения
1028.3 987.6 -41.9
03 17.02 В 2 50 км ясно -37.8 -41.9 65 -47 -46 опасность
обморожения
1026.1 986.2
06 17.02 В 2 50 км ясно -34.2 -38.5 65 -42 -42 опасность
обморожения
1024.9 985.7
09 17.02 ЮВ 1 50 км ясно -37.7 -41.2 70 -43 -43 опасность
обморожения
1025.3 985.4 -33.6
12 17.02 В 3 50 км ясно -37.4 -40.8 70 -49 -49 опасность
обморожения
1025.3 985.6
15 17.02 ЮВ 3 50 км ясно -37.9 -41.6 68 -49 -49 опасность
обморожения
1025.1 985.2
18 17.02 ЮВ 3 50 км ясно -39.3 -42.9 68 -51 -51 опасность
обморожения
1024.7 984.6
21 17.02 ЮВ 2 50 км ясно -40.4 -43.3 73 -50 -50 опасность
обморожения
1024.3 984.1 -40.4 40
00 18.02 штиль 0 50 км ясно -41.9 -44.4 76 -42 -42 опасность
обморожения
1024.3 983.7 -43.3
03 18.02 ЮВ 3 50 км 5/0
[Ci fib]
-34.2 -38.5 65 -45 -44 опасность
обморожения
1031.8 982.7
06 18.02 ЮВ 1 50 км 1/0
[Ci fib]
-30.0 -35.3 60 -34 -34 опасность
обморожения
1019.9 981.5
09 18.02 В 2 50 км ясно -33.2 -37.7 64 -41 -41 опасность
обморожения
1020.7 981.8 -29.3
12 18.02 ЮВ 3 50 км ясно -33.2 -37.7 64 -43 -43 опасность
обморожения
1020.6 989.7
15 18.02 ЮВ 4 50 км ясно -35.7 -39.4 69 -48 -48 опасность
обморожения
1021.2 981.8
18 18.02 ЮВ 3 50 км ясно -36.3 -39.7 71 -47 -47 опасность
обморожения
1021.5 982.0
21 18.02 В 3 50 км ясно -36.3 -39.7 71 -47 -47 опасность
обморожения
1021.8 982.4 -36.5 40
00 19.02 В 4 50 км ясно -37.5 -41.2 68 -50 -50 опасность
обморожения
1022.4 982.6 -37.6
03 19.02 ЮВ 2 50 км ясно -33.5 -38.0 64 -42 -41 опасность
обморожения
1020.8 981.7
06 19.02 В 2 50 км ясно -30.2 -35.5 60 -38 -38 опасность
обморожения
1019.8 981.4
09 19.02 В 3 50 км ясно -33.2 -37.7 64 -43 -43 опасность
обморожения
1020.5 981.6 -29.6
12 19.02 В 3 50 км ясно -34.2 -38.5 65 -45 -45 опасность
обморожения
1020.6 981.5
15 19.02 В 2 50 км ясно -35.3 -39.0 69 -44 -44 опасность
обморожения
1021.2 982.0
18 19.02 В 1 50 км ясно -36.4 -40.1 68 -41 -41 опасность
обморожения
1022.3 982.9
21 19.02 ЮВ 2 50 км ясно -37.8 -41.2 70 -47 -47 опасность
обморожения
1023.6 982.8 -38.1 40
00 20.02 В 2 50 км ясно -38.3 -41.6 71 -47 -47 опасность
обморожения
1023.0 983.2 -38.5
03 20.02 ЮВ 2 50 км ясно -33.8 -39.0 59 -42 -41 опасность
обморожения
1021.5 982.4
06 20.02 В 2 50 км ясно -30.7 -35.9 60 -38 -38 опасность
обморожения
1021.2 982.6
09 20.02 В 2 50 км ясно -33.9 -37.5 70 -42 -42 опасность
обморожения
1022.8 983.6 -30.1
12 20.02 В 2 50 км ясно -35.5 -39.0 70 -44 -44 опасность
обморожения
1023.5 984.0
15 20.02 ЮВ 3 50 км ясно -36.6 -40.1 70 -48 -48 опасность
обморожения
1024.3 984.6
18 20.02 штиль 0 50 км ясно -43.7 -46.9 70 -44 -44 опасность
обморожения
1026.3 985.2
21 20.02 штиль 0 50 км ясно -42.6 -45.6 72 -43 -43 опасность
обморожения
1016.8 986.0 -43.9 40
00 21.02 ЮВ 1 50 км 10/0
[Cs]
-41.6 -45.0 69 -47 -47 опасность
обморожения
1027.3 986.6 -44.6
03 21.02 ЮВ 1 50 км 8/0
[Cs]
-37.3 -41.5 65 -42 -41 опасность
обморожения
1026.1 986.4
06 21.02 ЮВ 1 50 км ясно -34.3 -38.5 66 -39 -39 опасность
обморожения
1025.8 986.5

 

Местоположение метеостанции Усть-Чаркы (Якутия, Россия): широта 66.80 долгота 136.60 высота над уровнем моря 274 м.

В архиве по умолчанию представлена погода в Усть-Чарках за последнюю неделю. Архивные данные за месяц целиком и за предыдущие месяцы, начиная с января 2011 года, Вы можете получить, выбрав интересующий диапазон дат из раскрывающегося списка и нажав кнопку "Ввод!".

Внимание! Время в таблицах - всемирное. Для получения местного времени необходимо прибавить поправку, которая в Усть-Чарках равна 10 ч.

Смотрите также архив погоды в соседних городах и на ближайших метеорологических станциях:

Погода в Батагае (Якутия, Россия) (128 км)
Погода в Верхоянске (Якутия, Россия) (162 км)
Погода в Иэме (Якутия, Россия) (171 км)
Погода в Екюччю (Якутия, Россия) (219 км)
Погода в Батагай-Алыте (Якутия, Россия) (288 км)
Погода в Усть-Моме (Якутия, Россия) (294 км)
Погода в Депутатском (Якутия, Россия) (316 км)
Погода в Томпо (Якутия, Россия) (319 км)
Погода в Себян-Кюеле (Якутия, Россия) (341 км)
Погода в Усть-Куйге (Якутия, Россия) (358 км)

Пояснения к столбцам:

Ветер - указаны скорость ветра в м/с - средняя за 10 мин, порывы в срок и между сроками (в фигурных скобках) и направление, откуда дует ветер: С - северный, СВ - северо-восточный, В - восточный, ЮВ - юго-восточный, Ю - южный, ЮЗ - юго-западный, З - западный, СЗ - северо-западный.
Видимость - горизонтальная дальность видимости в метрах или километрах. При видимости от 1 до 10 км при отсутствии осадков обычно наблюдается дымка, при ухудшении видимости до 1 км и менее - туман. В сухую погоду видимость может ухудшаться дымом, пылью или мглою.
Явления - указаны атмосферные явления, наблюдавшиеся в срок или в последний час перед сроком; фигурными скобками обозначены явления, наблюдавшиеся между сроками (за 1-3 часа до срока); квадратными скобками обозначены град или гололедные отложения с указанием их диаметра в мм.
Облачность - указаны через наклонную черту общая и нижняя облачность в баллах и высота нижней границы облаков в метрах; квадратными скобками обозначены формы облаков: Ci - перистые, Cs - перисто-слоистые, Cc - перисто-кучевые, Ac - высококучевые, As - высокослоистые, Sc - слоисто-кучевые, Ns - слоисто-дождевые, Cu - кучевые, Cb - кучево-дождевые. Подробнее классификацию облаков см. в Атласе облаков (PDF).
T - Температура воздуха - температура, измеренная на высоте 2 м над землей.
Td - Температура точки росы - температура, при понижении до которой содержащийся в воздухе водяной пар достигнет насыщения.
f - Относительная влажность воздуха - влажноcть воздуха, измеренная на высоте 2 м над землей.
Te - Эффективная температура - температура, которую ощущает одетый по сезону человек в тени. Характеристика душности погоды. При расчете учитывается влияние влажности воздуха и скорости ветра на теплоощущения человека.
Tes - Эффективная температура на солнце - температура, которую ощущает человек, с поправкой на солнечный нагрев. Характеристика знойности погоды. Зависит от высоты солнца над горизонтом, облачности и скорости ветра. Ночью, в пасмурную погоду, а также при ветре 12 м/с и более поправка равна нулю.
P - Атмосферное давление - приведенное к уровню моря атмосферное давление.
Po - Атмосферное давление - измеренное на уровне метеостанции атмосферное давление.
Tmin - Минимальная температура - минимум температуры воздуха на высоте 2 м над землей.
Tmax - Максимальная температура - максимум температуры воздуха на высоте 2 м над землей.
R - Количество осадков - Количество выпавших осадков, мм. При наведении курсора мыши на число - период времени, за который выпало указанное количество осадков.
S - Снежный покров - Высота снежного покрова, см. При наведении курсора мыши на число - состояние снежного покрова и степень покрытия местности в баллах.